BADR-7 (ARABSAT-6B)

Last updated on Sun Oct 06 2024 00:02:40 GMT+0000 (Coordinated Universal Time)

1 41029U 15065B 24279.54601909 .00000155 00000+0 00000+0 0 9990 2 41029 0.0268 217.7822 0006659 9.8052 9.6972 1.00273891 32552
UTC large
Height (km)
Speed (km/s)
/
Latitude / Longitude
Inclination (degrees)
Orbital Period (minutes)
Azimuth
Elevation
Range (km)
Doppler Factor

Next 0 passes for location: London (51.5072 / 0.1276)

Sorry there are no passes over London.